Overview Statistics Trail Chart Weather Telemetry Raw packets
 

This is the latest recevied weather packets stored in our database for station/object DF7ER-12. If no packets are shown the sender has not sent any weather packets the latest 10 day(s).

<< 73 74 75 76 77 78 79 >>
Time Temp. Humidity Pressure Rain* Wind** Luminosity Snow
1788143230 20.56° C 85% 1000.2 hPa - - - -
1788142930 20.56° C 86% 1000.1 hPa - - - -
1788142630 20.56° C 85% 1000.1 hPa - - - -
1788142330 20.56° C 83% 1000.1 hPa - - - -
1788142030 20.56° C 85% 1000.2 hPa - - - -
1788141730 20.56° C 85% 1000.4 hPa - - - -
1788141430 20.56° C 85% 1000.5 hPa - - - -
1788141130 20.56° C 85% 1000.6 hPa - - - -
1788140830 20.56° C 85% 1000.6 hPa - - - -
1788140530 21.11° C 84% 1000.8 hPa - - - -
1788140024 21.11° C 84% 1000.6 hPa - - - -
1788139724 21.11° C 83% 1000.6 hPa - - - -
1788139424 21.11° C 85% 1000.7 hPa - - - -
1788139124 21.67° C 82% 1000.8 hPa - - - -
1788138824 21.11° C 83% 1000.7 hPa - - - -
1788138524 21.11° C 83% 1000.6 hPa - - - -
1788138224 21.67° C 83% 1000.7 hPa - - - -
1788137924 21.11° C 84% 1000.7 hPa - - - -
1788137624 21.11° C 84% 1000.8 hPa - - - -
1788137324 21.67° C 84% 1000.8 hPa - - - -
1788137024 21.11° C 84% 1000.9 hPa - - - -
1788136724 21.67° C 83% 1000.9 hPa - - - -
1788136424 21.67° C 84% 1001 hPa - - - -
1788136124 21.11° C 85% 1001.1 hPa - - - -
1788135824 21.67° C 83% 1001.1 hPa - - - -

* Rain since midnight (hover to see other rain measurements)
** Current wind speed in m/s (hover to see current wind gust speed)